Starlink 33849

operational
NORAD ID: 63654 Int'l Des: 2025-083 Owner: SPXS Country: US Constellation: starlink
LEOCIRCULAR

About Starlink 33849

Description loading...

Live Position

Loading 3D Globe...

Upcoming Passes

Altitude History

Altitude vs Time

uPlot chart will show altitude changes over time

Two-Line Element Set

1 63654U 25083W 25259.75409453 .00021655 00000-0 79379-3 0 9999
2 63654 43.0018 267.6724 0001892 266.1102 93.9533 15.27594515 23465
Epoch: Sep 16, 2025 • Age: 18 hours

Current Status

Altitude 487.3 km
Velocity 7.63 km/s
Sub-Earth Point 42.99°N, 174.63°E
Launch Date Apr 25, 2025
Age 0.3 years
Type internet

Technical Details

Classification Payload
Mass 575.00 kg
Dry Mass 530.00 kg
Total Mass 575.00 kg
Length 0.30 m
Diameter 4.10 m
Span 29.00 m
Shape Box + pan
Manufacturer SPXS
Bus Type Starlink V2MO
Phase Status In Orbit
Owner/State SPXS/US

Large Constellations

Loading constellations...